North Bend, OR

4:43 AM PDT on May 25, 2018 (GMT -0700)
North Bend Municipal

Weather History for KOTH - November, 2012

Change the Weather History Date:

Saturday, November 3, 2012

  Actual Average Record
Temperature  
Mean Temperature 58 °F 51 °F  
Max Temperature 61 °F 58 °F 78 °F (1929)
Min Temperature 55 °F 44 °F 23 °F (1935)
Degree Days  
Heating Degree Days 7 14  
Month to date heating degree days 26 42  
Since 1 July heating degree days 925 1008  
Cooling Degree Days 0 0  
Month to date cooling degree days 0 0  
Year to date cooling degree days 1 2  
Growing Degree Days 8 (Base 50)    
Moisture  
Dew Point 57 °F    
Average Humidity 95    
Maximum Humidity 100    
Minimum Humidity 90    
Precipitation  
Precipitation 0.00 in 0.27 in 1.50 in (1965)
Month to date precipitation 0.29 0.79  
Year to date precipitation 35.18 44.34  
Sea Level Pressure  
Sea Level Pressure 30.13 in    
Wind  
Wind Speed 4 mph (SSW)    
Max Wind Speed 14 mph    
Max Gust Speed 17 mph    
Visibility 10 miles    
Events      
T = Trace of Precipitation, MM = Missing Value Source: NWS Daily Summary

Daily Weather History Graph

Daily Weather History Graph

Search for Another Location

Airport or City:

Astronomy

Nov. 03, 2012 Rise Set
Actual Time 7:55 AM PDT 6:04 PM PDT
Civil Twilight 7:25 AM PDT 6:34 PM PDT
Nautical Twilight 6:51 AM PDT 7:08 PM PDT
Astronomical Twilight 6:18 AM PDT 7:41 PM PDT
Moon 9:48 PM PDT (11/3) 12:06 PM PDT (11/3)
Length of Visible Light 11h 09m
Length of Day
10h 09m
Waning Gibbous, 79% of the Moon is Illuminated
Nov 3
Waning Gibbous
Nov 6
Last Quarter
Nov 13
New
Nov 20
First Quarter
Nov 28
Full

Hourly Weather History & Observations

Time (PDT) Temp. Dew Point Humidity Pressure Visibility Wind Dir Wind Speed Gust Speed Precip Events Conditions
12:15 AM 55.4 °F 53.6 °F 94% 29.99 in 10.0 mi SSE 5.8 mph - N/A   Mostly Cloudy
12:35 AM 55.4 °F 55.4 °F 100% 30.00 in 10.0 mi SSW 5.8 mph - N/A   Mostly Cloudy
12:55 AM 55.4 °F 55.4 °F 100% 30.01 in 10.0 mi Calm Calm - N/A   Overcast
1:15 AM 55.4 °F 55.4 °F 100% 30.01 in 10.0 mi SSE 4.6 mph - N/A   Overcast
1:35 AM 55.4 °F 55.4 °F 100% 30.01 in 10.0 mi Calm Calm - N/A   Overcast
1:55 AM 55.4 °F 55.4 °F 100% 30.00 in 10.0 mi Calm Calm - N/A   Overcast
2:15 AM 55.4 °F 55.4 °F 100% 30.01 in 10.0 mi West 3.5 mph - N/A   Overcast
2:35 AM 55.4 °F 55.4 °F 100% 30.02 in 10.0 mi Calm Calm - N/A   Overcast
2:55 AM 55.4 °F 55.4 °F 100% 30.02 in 9.0 mi Calm Calm - N/A   Overcast
3:15 AM 55.4 °F 53.6 °F 94% 30.03 in 10.0 mi West 3.5 mph - N/A   Overcast
3:35 AM 55.4 °F 55.4 °F 100% 30.04 in 9.0 mi Calm Calm - N/A   Overcast
3:55 AM 55.4 °F 53.6 °F 94% 30.04 in 7.0 mi Calm Calm - N/A   Overcast
4:15 AM 55.4 °F 55.4 °F 100% 30.05 in 8.0 mi Calm Calm - N/A   Overcast
4:35 AM 57.2 °F 57.2 °F 100% 30.05 in 10.0 mi South 6.9 mph - N/A   Overcast
4:55 AM 57.2 °F 57.2 °F 100% 30.06 in 10.0 mi SSW 13.8 mph 17.3 mph N/A   Overcast
5:15 AM 57.2 °F 57.2 °F 100% 30.06 in 10.0 mi SSW 11.5 mph - N/A   Overcast
5:35 AM 57.2 °F 57.2 °F 100% 30.07 in 9.0 mi South 11.5 mph 18.4 mph N/A   Overcast
5:55 AM 57.2 °F 57.2 °F 100% 30.08 in 9.0 mi South 10.4 mph - N/A   Overcast
6:15 AM 57.2 °F 57.2 °F 100% 30.08 in 10.0 mi South 11.5 mph - N/A   Overcast
6:35 AM 57.2 °F 57.2 °F 100% 30.09 in 10.0 mi South 8.1 mph - N/A   Overcast
6:55 AM 57.2 °F 57.2 °F 100% 30.09 in 10.0 mi South 4.6 mph - N/A   Overcast
7:15 AM 57.2 °F 57.2 °F 100% 30.10 in 10.0 mi South 5.8 mph - N/A   Overcast
7:35 AM 57.2 °F 57.2 °F 100% 30.10 in 10.0 mi South 5.8 mph - N/A   Overcast
7:55 AM 57.2 °F 57.2 °F 100% 30.12 in 10.0 mi South 8.1 mph - N/A   Overcast
8:15 AM 57.2 °F 57.2 °F 100% 30.12 in 10.0 mi South 5.8 mph - N/A   Overcast
8:35 AM 57.2 °F 55.4 °F 94% 30.13 in 10.0 mi South 5.8 mph - N/A   Overcast
8:55 AM 57.2 °F 57.2 °F 100% 30.14 in 10.0 mi SSE 3.5 mph - N/A   Overcast
9:15 AM 57.2 °F 57.2 °F 100% 30.14 in 10.0 mi SSE 4.6 mph - N/A   Overcast
9:35 AM 59.0 °F 57.2 °F 94% 30.15 in 10.0 mi South 8.1 mph - N/A   Unknown
9:55 AM 60.8 °F 59.0 °F 94% 30.14 in 10.0 mi South 6.9 mph - N/A   Unknown
10:15 AM 60.8 °F 57.2 °F 88% 30.14 in 10.0 mi South 4.6 mph - N/A   Overcast
10:35 AM 60.8 °F 57.2 °F 88% 30.15 in 10.0 mi SW 3.5 mph - N/A   Overcast
10:55 AM 60.8 °F 57.2 °F 88% 30.16 in 10.0 mi SSW 4.6 mph - N/A   Overcast
11:15 AM 60.8 °F 59.0 °F 94% 30.16 in 10.0 mi South 3.5 mph - N/A   Overcast
11:35 AM 62.6 °F 59.0 °F 88% 30.15 in 10.0 mi SSW 5.8 mph - N/A   Overcast
11:55 AM 60.8 °F 59.0 °F 94% 30.15 in 10.0 mi ESE 5.8 mph - N/A   Overcast
12:15 PM 60.8 °F 59.0 °F 94% 30.15 in 10.0 mi Calm Calm - N/A   Overcast
12:35 PM 60.8 °F 59.0 °F 94% 30.16 in 10.0 mi Calm Calm - N/A   Overcast
12:55 PM 62.6 °F 59.0 °F 88% 30.16 in 10.0 mi West 9.2 mph - N/A   Overcast
1:15 PM 62.6 °F 59.0 °F 88% 30.16 in 10.0 mi West 8.1 mph - N/A   Overcast
1:35 PM 60.8 °F 59.0 °F 94% 30.16 in 10.0 mi WSW 8.1 mph - N/A   Overcast
1:55 PM 62.6 °F 59.0 °F 88% 30.16 in 10.0 mi WSW 11.5 mph - N/A   Overcast
2:15 PM 62.6 °F 57.2 °F 82% 30.16 in 10.0 mi WSW 11.5 mph - N/A   Overcast
2:35 PM 62.6 °F 59.0 °F 88% 30.17 in 10.0 mi WSW 11.5 mph 17.3 mph N/A   Overcast
2:55 PM 60.8 °F 57.2 °F 88% 30.18 in 10.0 mi WSW 10.4 mph - N/A   Overcast
3:15 PM 60.8 °F 57.2 °F 88% 30.18 in 10.0 mi WSW 10.4 mph - N/A   Overcast
3:35 PM 60.8 °F 57.2 °F 88% 30.18 in 10.0 mi WSW 8.1 mph - N/A   Overcast
3:55 PM 60.8 °F 57.2 °F 88% 30.17 in 10.0 mi Calm Calm - N/A   Overcast
4:15 PM 60.8 °F 57.2 °F 88% 30.18 in 10.0 mi SW 3.5 mph - N/A   Overcast
4:35 PM 60.8 °F 57.2 °F 88% 30.19 in 10.0 mi WSW 4.6 mph - N/A   Overcast
4:55 PM 59.0 °F 57.2 °F 94% 30.19 in 5.0 mi NW 3.5 mph - N/A   Overcast
5:15 PM 59.0 °F 57.2 °F 94% 30.18 in 8.0 mi Calm Calm - N/A   Overcast
5:35 PM 60.8 °F 57.2 °F 88% 30.18 in 9.0 mi Calm Calm - N/A   Overcast
5:55 PM 60.8 °F 57.2 °F 88% 30.17 in 10.0 mi SW 4.6 mph - N/A   Overcast
6:15 PM 60.8 °F 57.2 °F 88% 30.18 in 10.0 mi Calm Calm - N/A   Mostly Cloudy
6:35 PM 60.8 °F 57.2 °F 88% 30.18 in 10.0 mi South 3.5 mph - N/A   Mostly Cloudy
6:55 PM 59.0 °F 57.2 °F 94% 30.18 in 10.0 mi South 3.5 mph - N/A   Mostly Cloudy
7:15 PM 59.0 °F 57.2 °F 94% 30.19 in 10.0 mi Calm Calm - N/A   Mostly Cloudy
7:35 PM 59.0 °F 57.2 °F 94% 30.19 in 10.0 mi Calm Calm - N/A   Mostly Cloudy
7:55 PM 57.2 °F 57.2 °F 100% 30.18 in 10.0 mi Calm Calm - N/A   Mostly Cloudy
8:15 PM 57.2 °F 57.2 °F 100% 30.19 in 10.0 mi Calm Calm - N/A   Mostly Cloudy
8:35 PM 57.2 °F 57.2 °F 100% 30.18 in 10.0 mi SSE 3.5 mph - N/A   Mostly Cloudy
8:55 PM 57.2 °F 55.4 °F 94% 30.18 in 10.0 mi Calm Calm - N/A   Mostly Cloudy
9:15 PM 57.2 °F 57.2 °F 100% 30.18 in 10.0 mi ESE 3.5 mph - N/A   Mostly Cloudy
9:35 PM 57.2 °F 55.4 °F 94% 30.17 in 10.0 mi ESE 4.6 mph - N/A   Mostly Cloudy
9:55 PM 57.2 °F 57.2 °F 100% 30.17 in 10.0 mi SE 4.6 mph - N/A   Mostly Cloudy
10:15 PM 57.2 °F 57.2 °F 100% 30.18 in 10.0 mi Calm Calm - N/A   Unknown
10:35 PM 57.2 °F 57.2 °F 100% 30.18 in 10.0 mi Calm Calm - N/A   Unknown
10:55 PM 55.4 °F 55.4 °F 100% 30.18 in 10.0 mi Calm Calm - N/A   Unknown
11:15 PM 57.2 °F 57.2 °F 100% 30.18 in 10.0 mi Calm Calm - N/A   Unknown
11:35 PM 57.2 °F 57.2 °F 100% 30.19 in 10.0 mi Calm Calm - N/A   Unknown
11:55 PM 57.2 °F 57.2 °F 100% 30.19 in 10.0 mi Calm Calm - N/A   Unknown